TimeCDT,TemperatureF,Dew PointF,Humidity,Sea Level PressureIn,VisibilityMPH,Wind Direction,Wind SpeedMPH,Gust SpeedMPH,PrecipitationIn,Events,Conditions,WindDirDegrees,DateUTC
12:15 AM,39.2,32.0,75,29.68,2.5,WSW,13.8,18.4,N/A,,Haze,240,2013-03-11 05:15:00
12:35 AM,39.2,32.0,75,29.68,1.2,WSW,11.5,-,N/A,,Haze,240,2013-03-11 05:35:00
12:55 AM,39.2,32.0,75,29.68,2.5,WSW,13.8,-,N/A,,Haze,240,2013-03-11 05:55:00
1:15 AM,37.4,30.2,75,29.69,3.0,WSW,15.0,-,N/A,,Haze,250,2013-03-11 06:15:00
1:35 AM,37.4,30.2,75,29.69,2.5,WSW,11.5,-,N/A,,Haze,250,2013-03-11 06:35:00
2:15 AM,37.4,30.2,75,29.68,2.5,West,9.2,-,N/A,,Haze,260,2013-03-11 07:15:00
2:35 AM,37.4,30.2,75,29.68,3.0,West,11.5,-,N/A,,Haze,260,2013-03-11 07:35:00
2:55 AM,37.4,30.2,75,29.68,2.5,WSW,9.2,-,N/A,,Haze,250,2013-03-11 07:55:00
3:15 AM,37.4,30.2,75,29.67,2.5,WSW,8.1,-,N/A,,Haze,250,2013-03-11 08:15:00
3:35 AM,37.4,30.2,75,29.66,1.8,WSW,8.1,-,N/A,,Haze,250,2013-03-11 08:35:00
3:55 AM,37.4,30.2,75,29.65,1.8,WSW,9.2,-,N/A,,Haze,250,2013-03-11 08:55:00
4:15 AM,35.6,30.2,81,29.65,1.8,SW,6.9,-,N/A,,Haze,230,2013-03-11 09:15:00
4:35 AM,35.6,30.2,81,29.65,2.0,WSW,10.4,-,N/A,,Haze,240,2013-03-11 09:35:00
4:55 AM,35.6,28.4,75,29.65,2.0,WSW,10.4,-,N/A,,Haze,240,2013-03-11 09:55:00
5:15 AM,35.6,28.4,75,29.67,2.0,WSW,10.4,-,N/A,,Haze,240,2013-03-11 10:15:00
5:35 AM,35.6,28.4,75,29.68,2.5,WSW,9.2,-,N/A,,Haze,240,2013-03-11 10:35:00
5:55 AM,35.6,28.4,75,29.68,3.0,WSW,9.2,-,N/A,,Haze,240,2013-03-11 10:55:00
6:15 AM,35.6,28.4,75,29.69,3.0,WSW,10.4,-,N/A,,Haze,240,2013-03-11 11:15:00
6:35 AM,35.6,28.4,75,29.69,4.0,WSW,9.2,-,N/A,,Haze,250,2013-03-11 11:35:00
6:55 AM,35.6,28.4,75,29.69,2.5,WSW,11.5,-,N/A,Rain,Light Rain,250,2013-03-11 11:55:00
7:15 AM,35.6,28.4,75,29.68,2.0,WSW,13.8,-,N/A,Snow,Light Snow,250,2013-03-11 12:15:00
7:35 AM,33.8,28.4,81,29.68,2.5,West,13.8,-,N/A,Snow,Light Snow,260,2013-03-11 12:35:00
7:55 AM,33.8,28.4,81,29.68,1.8,West,11.5,-,N/A,,Haze,260,2013-03-11 12:55:00
8:15 AM,33.8,28.4,81,29.68,1.8,West,10.4,-,N/A,,Haze,260,2013-03-11 13:15:00
8:35 AM,35.6,28.4,75,29.69,2.5,West,11.5,-,N/A,,Haze,260,2013-03-11 13:35:00
8:55 AM,33.8,28.4,81,29.70,3.0,West,11.5,17.3,N/A,,Haze,260,2013-03-11 13:55:00
9:15 AM,33.8,28.4,81,29.70,2.0,West,11.5,-,N/A,,Haze,260,2013-03-11 14:15:00
9:35 AM,33.8,28.4,81,29.71,3.0,West,10.4,-,N/A,,Haze,260,2013-03-11 14:35:00
9:55 AM,33.8,28.4,81,29.71,4.0,West,11.5,-,N/A,,Haze,270,2013-03-11 14:55:00
10:15 AM,35.6,28.4,75,29.71,7.0,West,12.7,-,N/A,,Overcast,270,2013-03-11 15:15:00
10:35 AM,33.8,28.4,81,29.72,7.0,West,12.7,-,N/A,,Overcast,270,2013-03-11 15:35:00
10:55 AM,33.8,28.4,81,29.72,4.0,West,13.8,19.6,N/A,,Haze,280,2013-03-11 15:55:00
11:15 AM,35.6,28.4,75,29.73,2.5,West,13.8,-,N/A,,Haze,270,2013-03-11 16:15:00
11:35 AM,35.6,28.4,75,29.73,3.0,West,16.1,21.9,N/A,,Haze,270,2013-03-11 16:35:00
11:55 AM,33.8,28.4,81,29.74,3.0,WNW,16.1,23.0,N/A,,Haze,290,2013-03-11 16:55:00
12:15 PM,33.8,26.6,75,29.75,3.0,West,16.1,21.9,N/A,,Haze,280,2013-03-11 17:15:00
12:35 PM,33.8,26.6,75,29.75,3.0,West,12.7,23.0,N/A,,Haze,280,2013-03-11 17:35:00
12:55 PM,33.8,26.6,75,29.75,7.0,West,16.1,19.6,N/A,,Overcast,280,2013-03-11 17:55:00
1:15 PM,33.8,28.4,81,29.75,7.0,West,18.4,-,N/A,,Overcast,280,2013-03-11 18:15:00
1:35 PM,33.8,28.4,81,29.75,10.0,West,15.0,-,N/A,,Overcast,270,2013-03-11 18:35:00
1:55 PM,35.6,28.4,75,29.75,10.0,West,18.4,25.3,0.01,,Overcast,280,2013-03-11 18:55:00
2:15 PM,35.6,28.4,75,29.76,10.0,West,18.4,24.2,N/A,,Overcast,280,2013-03-11 19:15:00
2:35 PM,35.6,28.4,75,29.76,10.0,West,19.6,24.2,N/A,,Overcast,280,2013-03-11 19:35:00
2:55 PM,35.6,26.6,70,29.76,10.0,West,18.4,25.3,N/A,,Overcast,280,2013-03-11 19:55:00
3:15 PM,35.6,26.6,70,29.76,10.0,West,16.1,-,N/A,,Overcast,280,2013-03-11 20:15:00
3:35 PM,35.6,26.6,70,29.77,10.0,West,18.4,23.0,N/A,,Overcast,280,2013-03-11 20:35:00
3:55 PM,35.6,26.6,70,29.78,10.0,West,16.1,20.7,N/A,,Overcast,270,2013-03-11 20:55:00
4:15 PM,35.6,26.6,70,29.79,10.0,West,15.0,21.9,N/A,,Overcast,280,2013-03-11 21:15:00
4:35 PM,35.6,26.6,70,29.80,10.0,West,15.0,24.2,N/A,,Overcast,280,2013-03-11 21:35:00
4:55 PM,35.6,26.6,70,29.81,10.0,West,17.3,26.5,N/A,,Overcast,280,2013-03-11 21:55:00
5:15 PM,35.6,26.6,70,29.82,10.0,WNW,18.4,21.9,N/A,,Overcast,290,2013-03-11 22:15:00
5:35 PM,35.6,24.8,65,29.83,10.0,West,15.0,21.9,N/A,,Overcast,280,2013-03-11 22:35:00
5:55 PM,35.6,24.8,65,29.83,10.0,West,18.4,21.9,N/A,,Overcast,280,2013-03-11 22:55:00
6:15 PM,33.8,24.8,70,29.84,10.0,WNW,17.3,23.0,N/A,,Overcast,290,2013-03-11 23:15:00
6:35 PM,33.8,24.8,70,29.85,10.0,WNW,12.7,18.4,N/A,,Overcast,290,2013-03-11 23:35:00
6:55 PM,33.8,24.8,70,29.85,10.0,WNW,13.8,-,N/A,,Overcast,290,2013-03-11 23:55:00
7:15 PM,33.8,24.8,70,29.87,10.0,WNW,13.8,20.7,N/A,,Overcast,290,2013-03-12 00:15:00
7:35 PM,33.8,23.0,65,29.88,10.0,WNW,13.8,18.4,N/A,,Overcast,300,2013-03-12 00:35:00
7:55 PM,33.8,24.8,70,29.89,10.0,WNW,9.2,-,N/A,,Overcast,300,2013-03-12 00:55:00
8:15 PM,33.8,23.0,65,29.90,10.0,WNW,10.4,-,N/A,,Overcast,300,2013-03-12 01:15:00
8:35 PM,33.8,24.8,70,29.90,10.0,WNW,10.4,-,N/A,,Overcast,290,2013-03-12 01:35:00
8:55 PM,33.8,23.0,65,29.91,10.0,WNW,10.4,-,N/A,,Overcast,290,2013-03-12 01:55:00
9:15 PM,33.8,23.0,65,29.91,10.0,WNW,8.1,-,N/A,,Overcast,290,2013-03-12 02:15:00
9:35 PM,33.8,23.0,65,29.93,10.0,West,9.2,-,N/A,,Overcast,280,2013-03-12 02:35:00
9:55 PM,33.8,23.0,65,29.94,10.0,West,12.7,-,N/A,,Overcast,280,2013-03-12 02:55:00
10:15 PM,33.8,23.0,65,29.94,10.0,West,12.7,17.3,N/A,,Overcast,280,2013-03-12 03:15:00
10:35 PM,33.8,21.2,60,29.93,10.0,WNW,13.8,-,N/A,,Overcast,290,2013-03-12 03:35:00
10:55 PM,32.0,21.2,64,29.92,10.0,West,9.2,-,N/A,,Overcast,280,2013-03-12 03:55:00
11:15 PM,30.2,21.2,69,29.94,10.0,West,10.4,-,N/A,,Scattered Clouds,280,2013-03-12 04:15:00
11:35 PM,30.2,19.4,64,29.95,10.0,WNW,9.2,-,N/A,,Scattered Clouds,290,2013-03-12 04:35:00
11:55 PM,30.2,19.4,64,29.94,10.0,West,9.2,-,N/A,,Mostly Cloudy,280,2013-03-12 04:55:00